Weather History for Shannon, Ireland

Change the Weather History Date:

Wednesday, March 21, 2012

  Actual Average Record
Temperature  
Mean Temperature 49 °F -  
Max Temperature 52 °F 54 °F 59 °F (2002)
Min Temperature 44 °F 40 °F 32 °F (2007)
Degree Days  
Heating Degree Days 16    
Moisture  
Dew Point 42 °F    
Average Humidity 76    
Maximum Humidity 87    
Minimum Humidity 60    
Precipitation  
Precipitation 0.00 in 0.08 in - ()
Sea Level Pressure  
Sea Level Pressure 30.45 in    
Wind  
Wind Speed 9 mph ()    
Max Wind Speed 16 mph    
Max Gust Speed -    
Visibility 6.7 miles    
Events      
Averages and records for this station are not official NWS values.
T = Trace of Precipitation, MM = Missing Value Source: Averaged Metar Reports

Daily Weather History Graph

Daily Weather History Graph

Search for Another Location

Airport:

Trip Planner

Search our weather history database for the weather conditions in past years. The results will help you decide how hot, cold, wet, or windy it might be!

Date:

Astronomy

Mar. 21, 2012 Rise Set
Actual Time 6:35 AM GMT 6:51 PM GMT
Civil Twilight 6:00 AM GMT 7:25 PM GMT
Nautical Twilight 5:20 AM GMT 8:06 PM GMT
Astronomical Twilight 4:37 AM GMT 8:49 PM GMT
Moon 5:43 AM GMT (3/21) 6:05 PM GMT (3/21)
Length of Visible Light 13h 24m
Length of Day
12h 16m
Waning Crescent, 1% of the Moon is Illuminated
Mar 21
Waning Crescent
Mar 22
New
Mar 30
First Quarter
Apr 6
Full
Apr 13
Last Quarter

Hourly Weather History & Observations

Time (GMT) Temp. Windchill Dew Point Humidity Pressure Visibility Wind Dir Wind Speed Gust Speed Precip Events Conditions
12:00 AM 48.2 °F - 44.6 °F 87% 30.48 in 6.2 mi SSE 9.2 mph - N/A   Light Drizzle
12:30 AM 50.0 °F - 44.6 °F 82% 30.48 in 6.2 mi SSE 10.4 mph - N/A   Mostly Cloudy
1:00 AM 50.0 °F - 42.8 °F 76% 30.48 in 6.2 mi SSE 10.4 mph - N/A   Mostly Cloudy
1:30 AM 50.0 °F - 42.8 °F 76% 30.48 in 6.2 mi SSE 11.5 mph - N/A   Mostly Cloudy
2:00 AM 50.0 °F - 42.8 °F 76% 30.48 in 6.2 mi SSE 9.2 mph - N/A   Mostly Cloudy
2:30 AM 50.0 °F - 42.8 °F 76% 30.45 in 6.2 mi SSE 9.2 mph - N/A   Mostly Cloudy
3:00 AM 50.0 °F - 42.8 °F 76% 30.45 in 6.2 mi SSE 8.1 mph - N/A   Mostly Cloudy
3:30 AM 50.0 °F - 42.8 °F 76% 30.45 in 6.2 mi SSE 8.1 mph - N/A   Mostly Cloudy
4:00 AM 50.0 °F - 44.6 °F 82% 30.45 in 6.2 mi SE 8.1 mph - N/A   Mostly Cloudy
4:30 AM 48.2 °F - 44.6 °F 87% 30.45 in 6.2 mi SSE 11.5 mph - N/A   Light Drizzle
5:00 AM 48.2 °F - 44.6 °F 87% 30.45 in 6.2 mi SSE 9.2 mph - N/A   Mostly Cloudy
5:30 AM 48.2 °F - 44.6 °F 87% 30.45 in 6.2 mi SSE 10.4 mph - N/A   Mostly Cloudy
6:00 AM 48.2 °F - 44.6 °F 87% 30.45 in 6.2 mi SSE 10.4 mph - N/A   Mostly Cloudy
6:30 AM 48.2 °F - 44.6 °F 87% 30.45 in 6.2 mi South 6.9 mph - N/A   Mostly Cloudy
7:00 AM 48.2 °F - 44.6 °F 87% 30.48 in 6.2 mi South 3.5 mph - N/A   Mostly Cloudy
7:30 AM 48.2 °F - 44.6 °F 87% 30.48 in 6.2 mi SE 4.6 mph - N/A   Mostly Cloudy
8:00 AM 48.2 °F - 42.8 °F 82% 30.48 in 6.2 mi SSE 9.2 mph - N/A   Mostly Cloudy
8:30 AM 50.0 °F - 42.8 °F 76% 30.48 in 6.2 mi SSE 9.2 mph - N/A   Mostly Cloudy
9:00 AM 50.0 °F - 42.8 °F 76% 30.48 in 6.2 mi SSE 9.2 mph - N/A   Mostly Cloudy
9:30 AM 50.0 °F - 42.8 °F 76% 30.48 in 6.2 mi SE 9.2 mph - N/A   Overcast
10:00 AM 51.8 °F - 41.0 °F 67% 30.48 in 6.2 mi SSE 12.7 mph - N/A   Overcast
10:30 AM 51.8 °F - 42.8 °F 71% 30.48 in 6.2 mi SSE 11.5 mph - N/A   Overcast
11:00 AM 51.8 °F - 42.8 °F 71% 30.48 in 6.2 mi SSE 13.8 mph - N/A   Overcast
11:30 AM 51.8 °F - 42.8 °F 71% 30.48 in 6.2 mi SSE 15.0 mph - N/A   Overcast
12:00 PM 52 °F - 42 °F 60% 30.48 in 19 mi SSE 11.2 mph - -   Partly Cloudy
12:00 PM 51.8 °F - 42.8 °F 71% 30.48 in 6.2 mi SSE 11.5 mph - N/A   Overcast
12:30 PM 51.8 °F - 42.8 °F 71% 30.45 in 6.2 mi SSE 12.7 mph - N/A   Overcast
1:00 PM 51.8 °F - 42.8 °F 71% 30.45 in 6.2 mi SSE 10.4 mph - N/A   Overcast
1:30 PM 51.8 °F - 42.8 °F 71% 30.45 in 6.2 mi SSE 12.7 mph - N/A   Overcast
2:00 PM 51.8 °F - 41.0 °F 67% 30.45 in 6.2 mi SSE 10.4 mph - N/A   Mostly Cloudy
2:30 PM 51.8 °F - 42.8 °F 71% 30.42 in 6.2 mi SSE 13.8 mph - N/A   Mostly Cloudy
3:00 PM 51.8 °F - 41.0 °F 67% 30.42 in 6.2 mi SSE 12.7 mph - N/A   Overcast
3:30 PM 51.8 °F - 41.0 °F 67% 30.42 in 6.2 mi SSE 12.7 mph - N/A   Overcast
4:00 PM 51.8 °F - 42.8 °F 71% 30.42 in 6.2 mi SE 16.1 mph - N/A   Overcast
4:30 PM 50.0 °F - 42.8 °F 76% 30.42 in 6.2 mi SE 12.7 mph - N/A   Overcast
5:00 PM 50.0 °F - 42.8 °F 76% 30.42 in 6.2 mi SE 10.4 mph - N/A   Mostly Cloudy
5:30 PM 50.0 °F - 41.0 °F 71% 30.42 in 6.2 mi SSE 11.5 mph - N/A   Overcast
6:00 PM 50 °F - 42 °F 65% 30.43 in 19 mi SSE 8.9 mph - -   Partly Cloudy
6:00 PM 50.0 °F - 41.0 °F 71% 30.42 in 6.2 mi SSE 9.2 mph - N/A   Overcast
6:30 PM 50.0 °F - 39.2 °F 66% 30.42 in 6.2 mi SSE 9.2 mph - N/A   Overcast
7:00 PM 50.0 °F - 39.2 °F 66% 30.42 in 6.2 mi SSE 9.2 mph - N/A   Overcast
7:30 PM 48.2 °F - 39.2 °F 71% 30.42 in 6.2 mi SSE 11.5 mph - N/A   Overcast
8:00 PM 48.2 °F - 41.0 °F 76% 30.42 in 6.2 mi ESE 10.4 mph - N/A   Overcast
8:30 PM 48.2 °F - 42.8 °F 82% 30.42 in 6.2 mi ESE 9.2 mph - N/A   Overcast
9:00 PM 48.2 °F - 42.8 °F 82% 30.42 in 6.2 mi ESE 8.1 mph - N/A   Overcast
9:30 PM 48.2 °F - 41.0 °F 76% 30.42 in 6.2 mi SE 11.5 mph - N/A   Overcast
10:00 PM 48.2 °F - 41.0 °F 76% 30.42 in 6.2 mi SE 12.7 mph - N/A   Overcast
10:30 PM 46.4 °F 41.9 °F 39.2 °F 76% 30.42 in 6.2 mi ESE 9.2 mph - N/A   Partly Cloudy
11:00 PM 46.4 °F 42.4 °F 39.2 °F 76% 30.42 in 6.2 mi ESE 8.1 mph - N/A   Partly Cloudy
11:30 PM 44.6 °F 40.2 °F 39.2 °F 81% 30.42 in 6.2 mi East 8.1 mph - N/A   Partly Cloudy